Regional Weather Roundup
Issued by NWS

Home | Current Version | Previous Version | Text Only | Print | Product List | Glossary Off
Versions: 1 2 3 4 5 6 7 8 9 10 11 12 13 14 15 16 17 18 19 20 21 22 23 24 25 26 27 28 29 30 31 32 33 34 35 36 37 38 39 40 41 42 43 44 45 46 47 48 49 50

000
ASUS43 KMKX 240711
RWRWI

WISCONSIN REGIONAL WEATHER ROUNDUP
NATIONAL WEATHER SERVICE MILWAUKEE/SULLIVAN WI
200 AM CDT WED MAY 24 2017

NOTE: "FAIR" INDICATES FEW OR NO CLOUDS BELOW 12,000 FEET WITH NO
SIGNIFICANT WEATHER AND/OR OBSTRUCTIONS TO VISIBILITY.

WIZ001-002-006>008-014>016-023>028-240800-
NORTHWEST WISCONSIN

CITY           SKY/WX    TMP DP  RH WIND       PRES   REMARKS
SUPERIOR ARPT  NOT AVBL
ASHLAND        CLOUDY    46  43  89 NE6       29.85F
HAYWARD        CLOUDY    46  42  86 NE9       29.83F
SIREN          MOCLDY    46  43  88 NE5       29.84S
CUMBERLAND     CLEAR     43  41  93 N10       29.81S
RICE LAKE      CLOUDY    46  42  88 N13       29.81F
CHETEK         CLOUDY    46  44  91 N7        29.79S
LADYSMITH      CLOUDY    45  43  93 N8        29.80S
EAU CLAIRE     PTCLDY    48  44  86 N6        29.75F
MENOMONIE      CLOUDY    49  45  85 N7        29.78S
NEW RICHMOND   PTCLDY    46  42  88 N9        29.80F
OSCEOLA        CLEAR     45  45 100 N5        29.84S
$$

WIZ003>005-009-010-017-018-240800-
NORTH CENTRAL WISCONSIN

CITY           SKY/WX    TMP DP  RH WIND       PRES   REMARKS
MANITOWISH WTR CLOUDY    45  45 100 N6        29.80F
ARBOR VITAE    CLOUDY    46  43  90 N6        29.78F
WOODRUFF       CLOUDY    46  43  90 N6        29.78F
RHINELANDER    CLOUDY    47  44  90 VRB3      29.78F
EAGLE RIVER    CLOUDY    45  43  93 NE10      29.78F
LAND O LAKES   CLOUDY    45  43  92 N5        29.81S
PHILLIPS       CLOUDY    46  44  91 NE9       29.78F
TOMAHAWK       MOCLDY    47  43  86 N8        29.77F
MEDFORD        CLOUDY    47  45  90 NE7       29.75S
MERRILL        CLOUDY    48  48 100 NE5       29.76S
$$

WIZ029-030-035-036-043>047-240800-
CENTRAL WISCONSIN

CITY           SKY/WX    TMP DP  RH WIND       PRES   REMARKS
WAUSAU         LGT RAIN  49  47  93 NE3       29.72F
MOSINEE        LGT RAIN  46  46 100 NE7       29.74F
MARSHFIELD     CLOUDY    50  46  86 NE9       29.72F
STEVENS POINT  LGT RAIN  47  47  98 NE10      29.73F
WAUPACA        CLOUDY    52  50  93 NE9G17    29.72S
WAUTOMA        CLOUDY    50  48  93 NE6       29.71F
WISC RAPIDS    CLOUDY    51  48  89 NE10      29.73S
CAMP DOUGLAS   CLOUDY    50  48  93 CALM      29.71F
$$

WIZ011>013-019>022-031-037>040-048>050-240800-
NORTHEAST WISCONSIN

CITY           SKY/WX    TMP DP  RH WIND       PRES   REMARKS
ANTIGO         DRIZZLE   46  45  93 NE7       29.74F
SHAWANO        LGT RAIN  50  47  90 NE9       29.74S
OCONTO         CLOUDY    47  46  96 N6        29.73S
STURGEON BAY   LGT RAIN  48  46  93 N5        29.73S
GREEN BAY      CLOUDY    50  49  96 NE18G26   29.71F
MANITOWOC      LGT RAIN  48  46  93 N7        29.71F
APPLETON       CLOUDY    48  48 100 NE10      29.69S
CLINTONVILLE   CLOUDY    46  46 100 NE7       29.72F
OSHKOSH        LGT RAIN  51  48  89 NE13      29.70S FOG
$$

WIZ032>034-041-042-053>061-240800-
SOUTHWEST WISCONSIN

CITY           SKY/WX    TMP DP  RH WIND       PRES   REMARKS
LA CROSSE      CLOUDY    53  48  83 N6        29.72F
SPARTA         CLOUDY    48  48  99 CALM      29.73F
VIROQUA        CLOUDY    48  47  97 MISG      29.71S
BOSCOBEL       CLOUDY    53  50  89 E6        29.69S
PRAIRIE DU CHI CLOUDY    53  48  82 NE5       29.68F
PLATTEVILLE    CLOUDY    53  53 100 NE9       29.66F
$$

WIZ056-057-062-063-064-067-068-240800-
SOUTH CENTRAL WISCONSIN

CITY           SKY/WX    TMP DP  RH WIND       PRES   REMARKS
REEDSBURG      CLOUDY    49  49 100 NE5       29.70F
BARABOO/DELLS  CLOUDY    48  47  94 NE9       29.70F
LONE ROCK      CLOUDY    52  48  86 NE7       29.68F
MINERAL POINT  CLOUDY    54  54 100 NE9       29.67S
MADISON        CLOUDY    50  49  96 NE7       29.68F
MIDDLETON      CLOUDY    52  52 100 NE8       29.68F
WATERTOWN      CLOUDY    48  48 100 NE3       29.68F FOG
MONROE         CLOUDY    50  50 100 NE3       29.66S FOG
JANESVILLE     CLOUDY    52  52 100 NE7       29.66S
$$

WIZ051-052-058>065-066-070>072-240800-
SOUTHEAST WISCONSIN

CITY           SKY/WX    TMP DP  RH WIND       PRES   REMARKS
MILWAUKEE      LGT RAIN  48  47  96 N6        29.68F VSB 1/2
WAUKESHA       LGT RAIN  46  46 100 N3        29.69F VSB 3/4
MILWAUKEE/TIMM DRZL/FOG  46  45  93 NE3       29.69S VSB 1/2
RACINE         RAIN      47  46  97 N7        29.69F FOG
KENOSHA        LGT RAIN  50  48  93 NE7       29.67F FOG
FOND DU LAC    CLOUDY    51  47  86 NE9       29.69F
SHEBOYGAN      LGT RAIN  47  47 100 NE8       29.69F
WEST BEND      FOG       46  46 100 NE5       29.69S VSB 1/2
JUNEAU         CLOUDY    48  47  97 NE3       29.70S
$$

LSZ147-162-240800-
LAKE SUPERIOR

STATION/POSITION TIME  TEMP    WIND        PRES    WAVE
                       AIR SEA DIR/SP/G            HT/PER
                 (UTC) (F)     (DEG/KT/KT) (MB)    (FT/S)
W MID LAKE BUOY  0550   41 37  340/  6/  8 1011.5F   0
DEVILS ISLAND    0700   44      10/ 10/ 11 1011.3F
SAXON HARBOR     0640   43     360/  3/  4 1010.8F
$$

LMZ867-665-643>646-240800-
LAKE MICHIGAN

STATION/POSITION TIME  TEMP    WIND        PRES    WAVE
                       AIR SEA DIR/SP/G            HT/PER
                 (UTC) (F)     (DEG/KT/KT) (MB)    (FT/S)
CHAMBERS ISLAND  0640   47     360/ 13/ 19 1006.8F
N MID LAKE BUOY  0650   42 39   30/ 12/ 12 1007.4F
NORTHPORT PIER   0640   47     350/  9/ 11 1006.8F
KEWAUNEE LAKESHO 0648           20/  8/ 16 1005.8F
SHEBOYGAN LAKESH 0700   45      10/ 11/ 12 1005.5F
PORT WASHINGTON  0630   47     340/  4/  6 1006.4F
ATWATER BUOY     0609   45     360/ 10/ 14 1005.5F
MILWAUKEE LAKESH 0650   46     340/  5/  6   N/A
S MID LAKE BUOY  0550   47 45   40/  6/  8 1004.9F   0
KENOSHA   LAKESH 0700   47      20/ 10/ 10 1004.7
$$

TC  - TEMPERATURE IN CELSIUS
VSB - VISIBILITY IN STATUTE MILES
WCI - WIND CHILL INDEX
HX  - HEAT INDEX





USA.gov is the U.S. government's official web portal to all federal, state and local government web resources and services.